QPF
0.02 0.03 0.06 0.06 0.07 0.09 0.09 0.08 0.07 0.07 0.06 0.06 0.07 0.07 0.08 0.07 0.06 0.07 0.09 0.10 0.11 0.10 0.10 0.09 0.09 0.09 0.09 0.10 0.09 0.13 0.12 0.07 0.05 0.04 0.04 0.04 0.05 0.05 0.02 0.03 0.04 0.03 0.03
0.02 0.03 0.07 0.08 0.08 0.10 0.11 0.09 0.10 0.09 0.08 0.05 0.06 0.07 0.10 0.10 0.08 0.10 0.13 0.13 0.11 0.10 0.11 0.10 0.10 0.10 0.12 0.13 0.12 0.13 0.11 0.08 0.06 0.04 0.04 0.06 0.07 0.05 0.05 0.06 0.05 0.05 0.04
0.01 0.03 0.07 0.10 0.08 0.09 0.09 0.09 0.11 0.08 0.08 0.08 0.09 0.11 0.14 0.13 0.13 0.13 0.14 0.13 0.11 0.09 0.09 0.11 0.10 0.10 0.10 0.11 0.10 0.08 0.07 0.06 0.06 0.05 0.05 0.07 0.07 0.09 0.10 0.07 0.05 0.06 0.05
0.01 0.04 0.09 0.13 0.09 0.09 0.07 0.07 0.08 0.08 0.09 0.09 0.11 0.14 0.15 0.14 0.14 0.16 0.15 0.12 0.10 0.10 0.10 0.08 0.09 0.08 0.06 0.05 0.06 0.06 0.07 0.07 0.06 0.06 0.06 0.06 0.07 0.09 0.08 0.06 0.07 0.07 0.04
0.01 0.03 0.10 0.14 0.11 0.09 0.07 0.07 0.07 0.08 0.09 0.08 0.10 0.13 0.17 0.18 0.18 0.19 0.16 0.12 0.12 0.14 0.13 0.08 0.06 0.04 0.04 0.04 0.04 0.05 0.07 0.07 0.04 0.04 0.05 0.07 0.09 0.09 0.08 0.08 0.08 0.06 0.05
0.01 0.03 0.05 0.12 0.14 0.13 0.08 0.08 0.07 0.06 0.06 0.05 0.05 0.08 0.13 0.19 0.18 0.17 0.12 0.09 0.10 0.12 0.12 0.11 0.07 0.05 0.04 0.04 0.05 0.05 0.06 0.05 0.05 0.06 0.06 0.06 0.06 0.07 0.08 0.08 0.07 0.07 0.06
0.01 0.02 0.03 0.06 0.11 0.14 0.11 0.08 0.07 0.05 0.05 0.05 0.06 0.06 0.08 0.12 0.14 0.15 0.12 0.11 0.12 0.12 0.12 0.11 0.09 0.06 0.04 0.04 0.05 0.05 0.05 0.06 0.06 0.06 0.07 0.07 0.06 0.05 0.06 0.08 0.07 0.07 0.06
0.01 0.02 0.03 0.06 0.08 0.10 0.11 0.10 0.07 0.05 0.05 0.05 0.06 0.06 0.07 0.08 0.11 0.11 0.11 0.12 0.13 0.13 0.13 0.11 0.11 0.09 0.07 0.07 0.06 0.06 0.07 0.08 0.05 0.04 0.05 0.07 0.06 0.05 0.06 0.07 0.08 0.07 0.06
0.01 0.02 0.05 0.06 0.06 0.06 0.08 0.09 0.10 0.07 0.07 0.07 0.07 0.06 0.07 0.09 0.08 0.08 0.09 0.10 0.10 0.11 0.11 0.10 0.11 0.14 0.12 0.09 0.06 0.06 0.07 0.08 0.06 0.04 0.04 0.06 0.06 0.06 0.08 0.09 0.10 0.08 0.06
0.01 0.02 0.04 0.06 0.06 0.06 0.07 0.07 0.09 0.09 0.10 0.10 0.09 0.08 0.08 0.07 0.06 0.07 0.09 0.10 0.10 0.13 0.12 0.10 0.12 0.17 0.18 0.14 0.09 0.08 0.06 0.07 0.06 0.05 0.07 0.06 0.06 0.07 0.08 0.10 0.11 0.07 0.06
0.01 0.01 0.02 0.04 0.05 0.05 0.04 0.04 0.06 0.07 0.07 0.07 0.07 0.06 0.06 0.07 0.08 0.09 0.10 0.12 0.12 0.15 0.17 0.12 0.15 0.16 0.14 0.14 0.11 0.09 0.07 0.05 0.06 0.08 0.09 0.06 0.06 0.08 0.08 0.08 0.08 0.07 0.06
0.01 0.01 0.01 0.02 0.03 0.04 0.03 0.04 0.05 0.04 0.04 0.05 0.06 0.07 0.07 0.08 0.09 0.08 0.09 0.12 0.16 0.19 0.23 0.16 0.15 0.15 0.13 0.13 0.12 0.11 0.09 0.07 0.08 0.08 0.07 0.07 0.05 0.06 0.08 0.09 0.08 0.07 0.07
0.01 0.01 0.01 0.02 0.03 0.02 0.03 0.04 0.04 0.03 0.03 0.03 0.03 0.04 0.04 0.05 0.06 0.07 0.09 0.11 0.14 0.16 0.20 0.22 0.22 0.15 0.13 0.15 0.16 0.14 0.10 0.06 0.03 0.04 0.05 0.06 0.06 0.06 0.07 0.08 0.08 0.08 0.09
0.00 0.00 0.01 0.01 0.01 0.02 0.03 0.03 0.03 0.03 0.03 0.03 0.03 0.03 0.04 0.05 0.06 0.05 0.06 0.07 0.11 0.12 0.13 0.15 0.18 0.17 0.14 0.14 0.14 0.14 0.13 0.11 0.07 0.04 0.04 0.06 0.08 0.08 0.07 0.07 0.08 0.08 0.09
0.01 0.00 0.00 0.00 0.01 0.02 0.03 0.04 0.03 0.03 0.04 0.04 0.06 0.06 0.05 0.05 0.05 0.05 0.07 0.08 0.08 0.08 0.09 0.07 0.08 0.10 0.11 0.11 0.11 0.11 0.09 0.08 0.07 0.05 0.05 0.06 0.08 0.09 0.08 0.07 0.07 0.08 0.09
0.01 0.00 0.00 0.00 0.01 0.02 0.03 0.04 0.04 0.04 0.05 0.07 0.10 0.10 0.06 0.04 0.05 0.06 0.07 0.07 0.06 0.06 0.06 0.05 0.06 0.07 0.07 0.09 0.10 0.11 0.11 0.10 0.10 0.09 0.08 0.09 0.09 0.09 0.09 0.09 0.10 0.10 0.09
0.00 0.00 0.00 0.00 0.01 0.01 0.01 0.01 0.01 0.02 0.03 0.06 0.06 0.04 0.02 0.03 0.04 0.06 0.06 0.04 0.04 0.04 0.05 0.05 0.06 0.05 0.06 0.06 0.07 0.08 0.09 0.08 0.07 0.09 0.09 0.09 0.10 0.08 0.09 0.10 0.11 0.10 0.09
0.00 0.00 0.00 0.00 0.00 0.00 0.01 0.01 0.01 0.01 0.01 0.02 0.02 0.02 0.02 0.02 0.03 0.05 0.06 0.04 0.04 0.04 0.04 0.06 0.07 0.05 0.07 0.08 0.09 0.07 0.06 0.05 0.04 0.07 0.08 0.08 0.08 0.06 0.08 0.08 0.08 0.09 0.12
0.00 0.00 0.00 0.00 0.01 0.01 0.01 0.02 0.01 0.01 0.01 0.02 0.03 0.03 0.02 0.02 0.02 0.04 0.05 0.05 0.05 0.04 0.05 0.05 0.07 0.08 0.09 0.09 0.07 0.08 0.05 0.04 0.05 0.06 0.06 0.07 0.08 0.07 0.06 0.06 0.05 0.06 0.11
0.00 0.00 0.01 0.01 0.02 0.02 0.02 0.02 0.01 0.01 0.01 0.02 0.02 0.01 0.02 0.02 0.03 0.05 0.03 0.04 0.05 0.05 0.07 0.08 0.08 0.08 0.08 0.08 0.06 0.07 0.06 0.03 0.04 0.06 0.07 0.07 0.08 0.06 0.04 0.05 0.05 0.05 0.09
0.00 0.00 0.00 0.01 0.01 0.02 0.01 0.01 0.01 0.01 0.02 0.01 0.01 0.01 0.02 0.02 0.03 0.04 0.03 0.05 0.05 0.06 0.08 0.08 0.07 0.07 0.08 0.07 0.07 0.06 0.05 0.03 0.03 0.04 0.05 0.07 0.07 0.06 0.06 0.07 0.07 0.07 0.07
0.00 0.00 0.00 0.00 0.01 0.01 0.01 0.01 0.01 0.01 0.01 0.01 0.02 0.02 0.02 0.02 0.02 0.02 0.03 0.04 0.05 0.07 0.08 0.07 0.07 0.06 0.06 0.06 0.05 0.05 0.03 0.04 0.05 0.04 0.04 0.05 0.06 0.08 0.08 0.08 0.08 0.08 0.07
0.00 0.00 0.00 0.00 0.00 0.00 0.00 0.01 0.01 0.02 0.01 0.02 0.03 0.03 0.03 0.03 0.03 0.02 0.03 0.03 0.03 0.04 0.06 0.08 0.07 0.07 0.06 0.05 0.04 0.04 0.05 0.04 0.05 0.03 0.03 0.02 0.04 0.08 0.11 0.11 0.10 0.09 0.07
0.00 0.00 0.00 0.00 0.00 0.00 0.01 0.01 0.02 0.02 0.02 0.03 0.03 0.04 0.04 0.03 0.03 0.03 0.03 0.04 0.04 0.05 0.06 0.05 0.05 0.07 0.07 0.05 0.04 0.04 0.04 0.05 0.06 0.05 0.04 0.03 0.04 0.06 0.08 0.09 0.10 0.09 0.06
0.00 0.00 0.00 0.00 0.00 0.00 0.01 0.02 0.03 0.03 0.03 0.03 0.04 0.05 0.06 0.05 0.05 0.05 0.06 0.06 0.05 0.05 0.05 0.06 0.07 0.06 0.06 0.06 0.05 0.03 0.03 0.04 0.05 0.05 0.05 0.04 0.05 0.05 0.05 0.04 0.05 0.07 0.06
0.00 0.00 0.00 0.00 0.01 0.00 0.00 0.01 0.02 0.03 0.04 0.05 0.06 0.06 0.06 0.05 0.05 0.05 0.06 0.06 0.05 0.03 0.04 0.05 0.07 0.06 0.07 0.07 0.07 0.04 0.04 0.04 0.05 0.05 0.04 0.04 0.04 0.04 0.03 0.05 0.06 0.06 0.05
MSLP
1010.49 1010.27 1010.20 1010.25 1010.36 1010.46 1010.49 1010.39 1010.19 1009.91 1009.60 1009.29 1009.00 1008.71 1008.34 1007.84 1007.17 1006.30 1005.29 1004.25 1003.33 1002.66 1002.37 1002.50 1003.03 1003.90 1004.97 1006.12 1007.23 1008.25 1009.17 1010.00 1010.79 1011.56 1012.34 1013.09 1013.77 1014.32 1014.70 1014.91 1014.96 1014.93 1014.88
1010.43 1010.27 1010.26 1010.37 1010.54 1010.67 1010.72 1010.64 1010.43 1010.13 1009.80 1009.49 1009.22 1008.97 1008.69 1008.32 1007.80 1007.12 1006.30 1005.44 1004.66 1004.09 1003.82 1003.90 1004.33 1005.04 1005.93 1006.88 1007.80 1008.66 1009.44 1010.18 1010.89 1011.62 1012.37 1013.10 1013.76 1014.30 1014.68 1014.89 1014.97 1014.96 1014.96
1010.34 1010.25 1010.31 1010.48 1010.69 1010.87 1010.95 1010.88 1010.68 1010.39 1010.06 1009.76 1009.51 1009.31 1009.11 1008.86 1008.49 1007.98 1007.35 1006.68 1006.05 1005.59 1005.36 1005.42 1005.76 1006.33 1007.02 1007.77 1008.49 1009.16 1009.78 1010.38 1011.00 1011.65 1012.34 1013.04 1013.68 1014.21 1014.60 1014.84 1014.96 1015.01 1015.06
1010.24 1010.22 1010.34 1010.57 1010.83 1011.05 1011.15 1011.12 1010.94 1010.67 1010.36 1010.08 1009.86 1009.70 1009.56 1009.39 1009.15 1008.79 1008.33 1007.82 1007.35 1007.00 1006.84 1006.90 1007.18 1007.62 1008.15 1008.71 1009.23 1009.71 1010.16 1010.62 1011.12 1011.69 1012.31 1012.96 1013.58 1014.12 1014.53 1014.81 1014.98 1015.10 1015.21
1010.18 1010.22 1010.39 1010.65 1010.95 1011.20 1011.33 1011.33 1011.18 1010.94 1010.66 1010.41 1010.21 1010.08 1009.99 1009.88 1009.72 1009.47 1009.14 1008.77 1008.44 1008.20 1008.11 1008.19 1008.44 1008.79 1009.20 1009.60 1009.95 1010.27 1010.56 1010.89 1011.28 1011.76 1012.32 1012.93 1013.53 1014.07 1014.51 1014.83 1015.05 1015.23 1015.41
1010.21 1010.28 1010.48 1010.76 1011.07 1011.33 1011.48 1011.50 1011.39 1011.19 1010.95 1010.72 1010.55 1010.44 1010.36 1010.29 1010.17 1009.99 1009.76 1009.50 1009.27 1009.12 1009.11 1009.22 1009.46 1009.76 1010.08 1010.36 1010.59 1010.78 1010.95 1011.17 1011.47 1011.88 1012.39 1012.97 1013.56 1014.10 1014.56 1014.92 1015.19 1015.41 1015.63
1010.36 1010.44 1010.63 1010.91 1011.20 1011.45 1011.61 1011.65 1011.56 1011.39 1011.18 1010.99 1010.84 1010.74 1010.67 1010.60 1010.51 1010.36 1010.18 1009.99 1009.84 1009.78 1009.82 1009.97 1010.21 1010.48 1010.74 1010.95 1011.10 1011.20 1011.29 1011.44 1011.68 1012.04 1012.52 1013.08 1013.67 1014.22 1014.70 1015.08 1015.38 1015.63 1015.87
1010.63 1010.71 1010.87 1011.11 1011.37 1011.58 1011.72 1011.75 1011.68 1011.53 1011.36 1011.19 1011.06 1010.97 1010.90 1010.83 1010.74 1010.62 1010.46 1010.32 1010.22 1010.20 1010.28 1010.45 1010.69 1010.95 1011.18 1011.34 1011.44 1011.50 1011.55 1011.66 1011.88 1012.23 1012.70 1013.25 1013.84 1014.40 1014.89 1015.29 1015.60 1015.86 1016.09
1011.01 1011.06 1011.18 1011.36 1011.56 1011.73 1011.82 1011.83 1011.76 1011.63 1011.47 1011.33 1011.21 1011.13 1011.07 1011.01 1010.92 1010.80 1010.66 1010.54 1010.47 1010.47 1010.56 1010.74 1010.97 1011.21 1011.42 1011.55 1011.63 1011.67 1011.71 1011.82 1012.04 1012.40 1012.88 1013.45 1014.05 1014.62 1015.12 1015.53 1015.83 1016.07 1016.27
1011.42 1011.45 1011.52 1011.64 1011.77 1011.88 1011.92 1011.90 1011.81 1011.68 1011.54 1011.41 1011.32 1011.26 1011.21 1011.16 1011.08 1010.97 1010.85 1010.74 1010.67 1010.68 1010.76 1010.92 1011.13 1011.34 1011.51 1011.63 1011.69 1011.73 1011.79 1011.92 1012.16 1012.54 1013.05 1013.64 1014.26 1014.84 1015.35 1015.75 1016.04 1016.25 1016.41
1011.80 1011.81 1011.85 1011.92 1011.99 1012.03 1012.03 1011.97 1011.85 1011.72 1011.59 1011.48 1011.40 1011.36 1011.34 1011.30 1011.25 1011.16 1011.06 1010.96 1010.89 1010.88 1010.94 1011.07 1011.23 1011.39 1011.53 1011.62 1011.68 1011.72 1011.80 1011.96 1012.24 1012.65 1013.19 1013.80 1014.44 1015.04 1015.55 1015.94 1016.21 1016.39 1016.52
1012.08 1012.08 1012.10 1012.14 1012.17 1012.17 1012.13 1012.04 1011.91 1011.77 1011.64 1011.54 1011.48 1011.46 1011.46 1011.46 1011.44 1011.38 1011.30 1011.22 1011.15 1011.12 1011.14 1011.22 1011.32 1011.44 1011.53 1011.60 1011.64 1011.70 1011.80 1011.98 1012.29 1012.74 1013.30 1013.93 1014.58 1015.19 1015.70 1016.08 1016.35 1016.50 1016.60
1012.22 1012.23 1012.25 1012.28 1012.31 1012.29 1012.24 1012.13 1011.99 1011.84 1011.71 1011.62 1011.58 1011.57 1011.60 1011.63 1011.64 1011.62 1011.57 1011.50 1011.43 1011.39 1011.37 1011.39 1011.44 1011.50 1011.55 1011.59 1011.63 1011.69 1011.80 1012.01 1012.35 1012.81 1013.38 1014.02 1014.67 1015.28 1015.79 1016.18 1016.44 1016.59 1016.67
1012.18 1012.22 1012.27 1012.33 1012.37 1012.37 1012.33 1012.23 1012.10 1011.95 1011.82 1011.73 1011.69 1011.70 1011.74 1011.80 1011.84 1011.85 1011.83 1011.78 1011.71 1011.65 1011.61 1011.59 1011.59 1011.60 1011.61 1011.63 1011.66 1011.72 1011.85 1012.08 1012.42 1012.88 1013.45 1014.07 1014.71 1015.31 1015.81 1016.21 1016.47 1016.64 1016.73
1012.00 1012.07 1012.16 1012.26 1012.35 1012.40 1012.39 1012.33 1012.22 1012.09 1011.97 1011.87 1011.83 1011.83 1011.88 1011.95 1012.01 1012.05 1012.05 1012.01 1011.96 1011.89 1011.82 1011.77 1011.74 1011.72 1011.71 1011.72 1011.75 1011.82 1011.96 1012.18 1012.51 1012.96 1013.49 1014.08 1014.68 1015.26 1015.75 1016.15 1016.44 1016.63 1016.76
1011.71 1011.81 1011.95 1012.11 1012.25 1012.37 1012.42 1012.41 1012.35 1012.24 1012.13 1012.03 1011.97 1011.96 1012.00 1012.06 1012.13 1012.17 1012.19 1012.18 1012.13 1012.06 1011.99 1011.93 1011.89 1011.86 1011.85 1011.86 1011.90 1011.98 1012.12 1012.33 1012.63 1013.03 1013.51 1014.04 1014.58 1015.11 1015.59 1016.00 1016.31 1016.55 1016.72
1011.36 1011.49 1011.67 1011.88 1012.10 1012.28 1012.41 1012.46 1012.45 1012.38 1012.28 1012.18 1012.11 1012.08 1012.09 1012.13 1012.19 1012.24 1012.27 1012.26 1012.23 1012.18 1012.12 1012.06 1012.02 1012.01 1012.01 1012.04 1012.09 1012.18 1012.32 1012.51 1012.76 1013.09 1013.49 1013.94 1014.41 1014.88 1015.33 1015.73 1016.07 1016.35 1016.59
1011.01 1011.16 1011.38 1011.63 1011.90 1012.15 1012.35 1012.47 1012.51 1012.48 1012.40 1012.31 1012.22 1012.17 1012.15 1012.17 1012.22 1012.26 1012.29 1012.30 1012.29 1012.25 1012.21 1012.18 1012.17 1012.17 1012.20 1012.25 1012.33 1012.42 1012.54 1012.70 1012.90 1013.15 1013.45 1013.79 1014.17 1014.57 1014.97 1015.35 1015.71 1016.04 1016.34
1010.70 1010.86 1011.09 1011.38 1011.69 1011.99 1012.24 1012.42 1012.51 1012.52 1012.47 1012.39 1012.30 1012.23 1012.19 1012.19 1012.22 1012.26 1012.30 1012.32 1012.33 1012.32 1012.31 1012.31 1012.32 1012.36 1012.42 1012.49 1012.58 1012.68 1012.79 1012.90 1013.03 1013.19 1013.38 1013.62 1013.90 1014.21 1014.55 1014.91 1015.28 1015.64 1015.99
1010.44 1010.62 1010.86 1011.15 1011.48 1011.81 1012.10 1012.32 1012.46 1012.51 1012.48 1012.41 1012.33 1012.25 1012.21 1012.20 1012.23 1012.27 1012.32 1012.36 1012.39 1012.41 1012.43 1012.46 1012.50 1012.57 1012.65 1012.75 1012.85 1012.94 1013.03 1013.10 1013.16 1013.23 1013.33 1013.45 1013.63 1013.86 1014.13 1014.46 1014.81 1015.19 1015.59
1010.23 1010.43 1010.67 1010.98 1011.31 1011.64 1011.94 1012.19 1012.35 1012.43 1012.43 1012.38 1012.31 1012.25 1012.21 1012.21 1012.24 1012.29 1012.36 1012.42 1012.48 1012.52 1012.57 1012.62 1012.69 1012.78 1012.88 1012.99 1013.09 1013.18 1013.24 1013.27 1013.28 1013.28 1013.29 1013.33 1013.42 1013.57 1013.78 1014.06 1014.40 1014.78 1015.18
1010.06 1010.29 1010.55 1010.84 1011.16 1011.49 1011.79 1012.03 1012.21 1012.30 1012.33 1012.31 1012.26 1012.22 1012.20 1012.21 1012.26 1012.33 1012.41 1012.50 1012.58 1012.64 1012.71 1012.78 1012.86 1012.96 1013.06 1013.17 1013.27 1013.35 1013.40 1013.41 1013.38 1013.34 1013.30 1013.28 1013.31 1013.40 1013.56 1013.79 1014.10 1014.46 1014.86
1009.89 1010.16 1010.45 1010.75 1011.05 1011.36 1011.64 1011.87 1012.05 1012.16 1012.20 1012.20 1012.18 1012.17 1012.17 1012.20 1012.27 1012.36 1012.46 1012.56 1012.65 1012.73 1012.80 1012.87 1012.95 1013.04 1013.14 1013.25 1013.34 1013.42 1013.46 1013.47 1013.44 1013.39 1013.33 1013.30 1013.30 1013.36 1013.49 1013.69 1013.96 1014.29 1014.66
1009.69 1010.03 1010.35 1010.65 1010.96 1011.24 1011.50 1011.72 1011.89 1012.00 1012.06 1012.08 1012.09 1012.09 1012.11 1012.16 1012.24 1012.34 1012.44 1012.54 1012.63 1012.71 1012.78 1012.84 1012.90 1012.98 1013.06 1013.16 1013.25 1013.33 1013.38 1013.41 1013.41 1013.39 1013.37 1013.36 1013.38 1013.45 1013.57 1013.75 1013.99 1014.28 1014.60
1009.42 1009.83 1010.20 1010.54 1010.84 1011.12 1011.37 1011.58 1011.75 1011.86 1011.93 1011.96 1011.98 1012.00 1012.03 1012.08 1012.16 1012.25 1012.34 1012.43 1012.50 1012.56 1012.61 1012.65 1012.69 1012.74 1012.81 1012.89 1012.98 1013.07 1013.15 1013.22 1013.27 1013.32 1013.36 1013.41 1013.48 1013.59 1013.73 1013.92 1014.13 1014.38 1014.65
1009.06 1009.55 1009.97 1010.34 1010.67 1010.96 1011.22 1011.43 1011.60 1011.72 1011.80 1011.85 1011.87 1011.89 1011.92 1011.96 1012.02 1012.08 1012.15 1012.21 1012.26 1012.29 1012.30 1012.32 1012.33 1012.36 1012.40 1012.47 1012.56 1012.66 1012.78 1012.89 1013.01 1013.13 1013.26 1013.40 1013.55 1013.72 1013.90 1014.10 1014.31 1014.53 1014.75
Thickness
5801 5801 5794 5793 5793 5793 5793 5793 5793 5793 5793 5792 5792 5791 5789 5788 5787 5786 5784 5783 5782 5782 5781 5780 5779 5778 5778 5776 5775 5775 5774 5773 5772 5771 5771 5769 5769 5768 5767 5766 5766 5766 5763
5804 5801 5794 5793 5793 5793 5793 5793 5793 5792 5792 5791 5791 5790 5789 5787 5786 5785 5783 5782 5781 5780 5780 5779 5778 5777 5777 5776 5774 5774 5773 5772 5771 5770 5770 5769 5768 5767 5766 5765 5765 5765 5762
5806 5801 5796 5793 5793 5793 5793 5793 5792 5791 5790 5790 5790 5788 5787 5786 5785 5783 5782 5781 5780 5779 5778 5777 5777 5776 5776 5774 5773 5773 5772 5771 5770 5770 5770 5772 5769 5766 5765 5764 5763 5762 5760
5806 5802 5798 5793 5793 5792 5792 5792 5791 5791 5790 5789 5788 5787 5785 5784 5783 5782 5781 5779 5778 5778 5777 5776 5776 5775 5774 5773 5772 5771 5770 5770 5770 5770 5773 5774 5772 5766 5764 5763 5762 5760 5759
5806 5803 5798 5793 5792 5791 5791 5791 5790 5790 5789 5788 5787 5785 5784 5783 5782 5780 5779 5778 5777 5776 5775 5775 5774 5774 5773 5772 5771 5770 5769 5769 5769 5771 5775 5773 5771 5766 5764 5762 5761 5759 5758
5806 5803 5797 5793 5791 5791 5790 5790 5789 5789 5788 5787 5786 5785 5784 5782 5781 5779 5777 5776 5775 5774 5774 5773 5773 5772 5772 5771 5770 5770 5769 5769 5770 5774 5774 5772 5770 5765 5763 5761 5760 5758 5757
5806 5804 5798 5792 5791 5790 5790 5789 5789 5788 5787 5786 5786 5784 5783 5782 5780 5778 5776 5775 5774 5773 5772 5772 5771 5771 5770 5770 5769 5768 5768 5769 5773 5774 5773 5772 5768 5764 5762 5760 5759 5757 5756
5807 5804 5799 5792 5791 5790 5789 5789 5788 5787 5786 5786 5785 5783 5782 5781 5779 5777 5776 5774 5773 5772 5771 5770 5770 5769 5769 5768 5767 5767 5767 5768 5772 5774 5773 5771 5766 5762 5761 5759 5758 5757 5756
5807 5804 5801 5797 5794 5791 5790 5788 5788 5787 5786 5784 5784 5783 5781 5780 5779 5777 5775 5773 5772 5771 5770 5770 5769 5768 5767 5766 5766 5766 5766 5767 5773 5772 5772 5769 5764 5761 5760 5758 5757 5756 5755
5806 5804 5802 5800 5797 5796 5793 5789 5787 5786 5785 5784 5783 5782 5781 5780 5779 5777 5775 5773 5772 5770 5770 5769 5768 5768 5767 5766 5765 5765 5765 5766 5772 5772 5771 5767 5762 5760 5758 5757 5756 5755 5754
5803 5804 5803 5801 5799 5797 5796 5792 5789 5787 5785 5785 5784 5782 5782 5783 5782 5779 5776 5773 5772 5771 5770 5769 5768 5767 5767 5766 5765 5764 5765 5770 5771 5771 5769 5764 5761 5759 5757 5757 5756 5754 5754
5801 5803 5803 5802 5800 5799 5797 5794 5792 5792 5788 5787 5786 5785 5784 5783 5782 5781 5775 5773 5772 5771 5769 5768 5768 5768 5768 5770 5768 5766 5769 5770 5770 5770 5767 5762 5760 5758 5757 5756 5755 5754 5753
5805 5803 5802 5802 5800 5799 5797 5795 5794 5793 5790 5788 5786 5784 5784 5784 5783 5781 5779 5776 5774 5772 5772 5770 5770 5771 5772 5771 5771 5770 5770 5771 5771 5770 5766 5761 5759 5757 5756 5755 5754 5754 5753
5806 5804 5803 5802 5799 5797 5797 5795 5793 5793 5791 5790 5786 5784 5785 5784 5782 5782 5779 5779 5777 5776 5774 5773 5772 5771 5771 5770 5770 5770 5770 5770 5770 5769 5764 5760 5758 5757 5756 5755 5754 5753 5752
5805 5804 5803 5801 5798 5795 5793 5793 5793 5791 5791 5790 5786 5784 5784 5784 5782 5781 5779 5777 5778 5777 5776 5773 5773 5771 5770 5770 5770 5770 5769 5769 5768 5768 5764 5759 5757 5756 5754 5753 5753 5752 5751
5806 5804 5803 5800 5797 5794 5793 5791 5791 5791 5788 5789 5787 5784 5783 5783 5782 5781 5778 5777 5777 5777 5776 5775 5774 5771 5771 5771 5770 5769 5769 5768 5766 5765 5764 5760 5757 5755 5754 5753 5751 5750 5749
5808 5806 5803 5801 5799 5795 5793 5792 5792 5790 5790 5788 5786 5783 5781 5782 5780 5779 5779 5778 5778 5777 5775 5774 5773 5773 5771 5771 5769 5769 5768 5767 5766 5763 5763 5762 5759 5756 5753 5752 5750 5749 5748
5810 5806 5804 5804 5800 5796 5793 5791 5792 5791 5790 5787 5786 5784 5781 5781 5779 5778 5778 5778 5777 5777 5776 5773 5773 5772 5770 5769 5768 5768 5768 5766 5764 5763 5763 5761 5760 5759 5754 5750 5748 5747 5746
5811 5807 5803 5802 5800 5797 5795 5792 5791 5789 5788 5787 5785 5784 5782 5780 5779 5778 5778 5776 5775 5776 5775 5774 5772 5769 5766 5765 5766 5765 5766 5765 5764 5764 5763 5761 5759 5757 5754 5749 5747 5745 5744
5813 5809 5806 5802 5799 5797 5795 5792 5791 5789 5789 5787 5785 5783 5781 5780 5779 5778 5778 5775 5776 5775 5772 5770 5767 5765 5764 5763 5766 5764 5763 5764 5763 5762 5762 5760 5757 5755 5753 5750 5747 5744 5742
5814 5810 5806 5803 5800 5798 5796 5793 5791 5789 5789 5788 5786 5783 5781 5780 5778 5776 5777 5774 5773 5772 5769 5768 5766 5764 5763 5763 5761 5759 5761 5762 5761 5759 5759 5758 5755 5753 5750 5748 5746 5744 5742
5814 5811 5808 5804 5802 5799 5797 5794 5792 5790 5790 5789 5787 5783 5781 5779 5777 5777 5773 5773 5771 5768 5765 5764 5762 5761 5761 5761 5757 5754 5752 5753 5754 5758 5755 5753 5752 5751 5749 5747 5744 5741 5740
5816 5813 5811 5807 5804 5800 5798 5796 5793 5790 5789 5788 5785 5783 5781 5778 5776 5774 5773 5772 5769 5768 5765 5762 5760 5757 5756 5757 5758 5753 5748 5745 5747 5750 5750 5749 5747 5746 5746 5744 5742 5739 5738
5820 5817 5812 5807 5804 5801 5798 5796 5793 5789 5786 5785 5785 5784 5781 5778 5776 5774 5772 5769 5767 5767 5763 5762 5761 5757 5754 5753 5754 5752 5751 5749 5742 5740 5744 5746 5744 5742 5742 5742 5740 5737 5735
5823 5819 5814 5808 5804 5801 5798 5795 5791 5789 5788 5787 5784 5781 5780 5778 5775 5773 5770 5768 5765 5764 5761 5759 5756 5755 5755 5752 5751 5749 5747 5745 5744 5738 5735 5737 5739 5740 5739 5737 5736 5735 5733
5823 5819 5815 5808 5803 5801 5797 5795 5791 5788 5786 5783 5780 5778 5778 5777 5775 5772 5769 5766 5764 5762 5759 5756 5754 5753 5751 5749 5748 5747 5744 5741 5739 5737 5733 5731 5732 5734 5735 5733 5732 5731 5730